Location: Peach Mountain Observatory
(42.3967°N, 83.9367°W)
Time: 23:44:40
(UTC-05:00)

Vanguard 3 - Visible Passes

Search period start: 24 January 2020 00:00
Search period end: 03 February 2020 00:00
Orbit: 507 x 3263 km, 33.4° (Epoch: 24 January)

Date Brightness Start Highest point End Pass type
(mag) Time Alt. Az. Time Alt. Az. Time Alt. Az.
24 Jan 11.2 00:14:02 10° W 00:14:21 11° W 00:14:21 11° W visible
24 Jan 10.3 18:22:36 10° SW 18:41:38 55° SSE 18:55:24 14° E visible
24 Jan 9.5 20:38:22 10° WSW 20:56:58 61° S 20:59:58 54° SSE visible
24 Jan 10.4 22:56:00 10° W 23:04:32 30° WSW 23:04:32 30° WSW visible
25 Jan 10.0 19:21:20 10° WSW 19:40:47 61° S 19:50:09 29° ESE visible
25 Jan 9.7 21:38:14 10° W 21:54:42 54° SSW 21:54:42 54° SSW visible
25 Jan 11.0 23:56:41 10° W 23:59:16 15° W 23:59:16 15° W visible
26 Jan 10.4 18:05:05 10° WSW 18:24:12 57° SSE 18:40:11 10° E visible
26 Jan 9.6 20:20:46 10° W 20:39:51 61° S 20:44:54 46° SE visible
26 Jan 10.3 22:38:25 10° W 22:49:28 35° WSW 22:49:28 35° WSW visible
27 Jan 10.1 19:03:52 10° WSW 19:23:28 63° S 19:35:06 23° ESE visible
27 Jan 9.7 21:20:36 10° W 21:38:32 53° SSW 21:39:40 52° S visible
27 Jan 10.9 23:39:19 10° W 23:44:14 18° WSW 23:44:14 18° WSW visible
28 Jan 10.4 17:47:45 10° WSW 18:06:43 60° SSE 18:23:37 10° E visible
28 Jan 9.8 20:03:15 10° W 20:22:38 61° S 20:29:54 37° SE visible
28 Jan 10.2 22:20:50 10° W 22:34:27 38° SW 22:34:27 38° SW visible
29 Jan 10.2 18:46:31 10° WSW 19:06:04 64° S 19:20:09 16° ESE visible
29 Jan 9.8 21:03:03 10° W 21:21:21 52° SSW 21:24:43 46° S visible
29 Jan 10.8 23:21:59 10° W 23:29:18 21° WSW 23:29:18 21° WSW visible
30 Jan 10.1 19:45:51 10° W 20:05:17 61° SSW 20:15:01 29° SE visible
30 Jan 10.2 22:03:19 10° W 22:19:22 38° SW 22:19:36 38° SSW visible
31 Jan 10.3 18:29:19 10° WSW 18:48:36 64° S 19:05:22 10° ESE visible
31 Jan 10.0 20:45:34 10° W 21:04:02 50° SSW 21:09:57 38° SSE visible
31 Jan 10.7 23:04:44 10° W 23:14:32 22° WSW 23:14:32 22° WSW visible
01 Feb 10.3 19:28:33 10° W 19:47:52 59° SSW 20:00:20 21° SE visible
01 Feb 10.3 21:45:52 10° W 22:02:04 36° SW 22:04:56 34° SSW visible
02 Feb 10.4 18:12:15 10° W 18:31:06 64° S 18:48:45 10° ESE visible
02 Feb 10.3 20:28:12 10° W 20:46:38 48° SSW 20:55:24 28° SSE visible
02 Feb 10.8 22:47:36 10° W 22:59:17 21° SW 23:00:00 21° SW visible
